sat.trackr.live / text

‹ back to catalog

STARLINK-11562 [DTC]

NORAD 62918 · 2025-027M

PAYLOAD ACTIVE UNKNOWN

§ Identity

Operator
Country
US
Launch date
2025-02-08
Launch site
AFETR
Launch vehicle
Mass (kg)
RCS (m²)

Purposes: comms

External: N2YO · Heavens-Above · Gunter

§ Orbital elements

Epoch: 2026-09-21T09:28:50.491776Z

Period
91.67 min
Inclination
42.9990°
Eccentricity
0.0000543
Mean motion
15.70858060 rev/d
Perigee alt
356.1 km
Apogee alt
356.8 km
Semi-major
6,734.6 km
B*
8.3573e-4
RAAN
247.8219°
Arg perigee
317.2252°
Mean anomaly
42.8573°
Rev number
9,397

§ Raw data

STARLINK-11562 [DTC]1 62918U 25027M   26264.39502884  .00108275  00000+0  83573-3 0  99922 62918  42.9990 247.8219 0000543 317.2252  42.8573 15.70858060 93975

JSON: /api/v1/satellites/62918 · /tle

For live sub-satellite position, see the globe view (requires WebGL).

§ Visibility from observer

Set your observer location to see the next 7 days of passes ≥ 10°. The values pass through the URL so the page stays shareable.

No JS? Fill the form by hand. The geolocation button needs JavaScript.